Time,TemperatureF,DewpointF,PressureIn,WindDirection,WindDirectionDegrees,WindSpeedMPH,WindSpeedGustMPH,Humidity,HourlyPrecipIn,Conditions,Clouds,dailyrainin,SoftwareType,DateUTC
2013-03-19 00:08:00,32.3,31.0,28.05,North,351,0.0,0.0,96,0.00,,,0.26,weatherlink.com 1.10,2013-03-19 04:08:00,
2013-03-19 00:23:00,32.5,32.0,28.04,North,351,0.0,0.0,96,0.01,,,0.27,weatherlink.com 1.10,2013-03-19 04:23:00,
2013-03-19 00:38:00,32.7,32.0,28.04,North,351,1.0,1.0,97,0.01,,,0.27,weatherlink.com 1.10,2013-03-19 04:38:00,
2013-03-19 00:53:00,32.9,32.0,28.04,North,1,2.0,2.0,96,0.01,,,0.27,weatherlink.com 1.10,2013-03-19 04:53:00,
2013-03-19 01:08:00,33.0,32.0,28.03,North,8,0.0,1.0,96,0.01,,,0.27,weatherlink.com 1.10,2013-03-19 05:08:00,
2013-03-19 01:23:00,33.1,32.0,28.03,North,9,0.0,1.0,96,0.00,,,0.27,weatherlink.com 1.10,2013-03-19 05:23:00,
2013-03-19 01:38:00,33.2,32.0,28.02,North,5,0.0,1.0,96,0.00,,,0.27,weatherlink.com 1.10,2013-03-19 05:38:00,
2013-03-19 01:53:00,33.2,32.0,28.02,North,5,0.0,1.0,96,0.00,,,0.27,weatherlink.com 1.10,2013-03-19 05:53:00,
2013-03-19 02:08:00,33.3,32.0,28.01,North,9,2.0,2.0,96,0.01,,,0.28,weatherlink.com 1.10,2013-03-19 06:08:00,
2013-03-19 02:23:00,33.3,32.0,28.01,North,358,2.0,2.0,96,0.01,,,0.28,weatherlink.com 1.10,2013-03-19 06:23:00,
2013-03-19 02:38:00,33.0,32.0,28.01,North,357,2.0,2.0,96,0.01,,,0.28,weatherlink.com 1.10,2013-03-19 06:38:00,
2013-03-19 02:53:00,33.0,32.0,27.99,NNW,346,0.0,2.0,96,0.01,,,0.28,weatherlink.com 1.10,2013-03-19 06:53:00,
2013-03-19 03:08:00,32.8,32.0,27.99,NNE,27,0.0,1.0,96,0.01,,,0.29,weatherlink.com 1.10,2013-03-19 07:08:00,
2013-03-19 03:24:00,32.5,32.0,27.99,North,5,2.0,2.0,96,0.01,,,0.29,weatherlink.com 1.10,2013-03-19 07:24:00,
2013-03-19 03:39:00,32.7,32.0,27.99,North,351,0.0,1.0,97,0.01,,,0.29,weatherlink.com 1.10,2013-03-19 07:39:00,
2013-03-19 03:54:00,33.1,32.0,27.97,NE,36,2.0,6.0,97,0.01,,,0.29,weatherlink.com 1.10,2013-03-19 07:54:00,
2013-03-19 04:09:00,33.1,32.0,27.98,NNE,33,0.0,5.0,96,0.00,,,0.29,weatherlink.com 1.10,2013-03-19 08:09:00,
2013-03-19 04:24:00,32.5,32.0,27.98,NNE,30,1.0,2.0,96,0.00,,,0.29,weatherlink.com 1.10,2013-03-19 08:24:00,
2013-03-19 04:39:00,32.5,32.0,27.97,NE,50,0.0,5.0,96,0.00,,,0.29,weatherlink.com 1.10,2013-03-19 08:39:00,
2013-03-19 04:54:00,32.3,31.0,27.97,NE,40,0.0,3.0,96,0.00,,,0.29,weatherlink.com 1.10,2013-03-19 08:54:00,
2013-03-19 05:09:00,32.3,32.0,27.97,NE,54,0.0,2.0,97,0.00,,,0.29,weatherlink.com 1.10,2013-03-19 09:09:00,
2013-03-19 05:24:00,32.8,32.0,27.97,ENE,67,0.0,1.0,97,0.00,,,0.29,weatherlink.com 1.10,2013-03-19 09:24:00,
2013-03-19 05:39:00,32.8,32.0,27.98,NE,54,1.0,1.0,97,0.00,,,0.29,weatherlink.com 1.10,2013-03-19 09:39:00,
2013-03-19 05:54:00,33.1,32.0,27.98,ENE,57,0.0,1.0,97,0.01,,,0.30,weatherlink.com 1.10,2013-03-19 09:54:00,
2013-03-19 06:09:00,33.3,33.0,27.98,ENE,67,0.0,0.0,97,0.01,,,0.30,weatherlink.com 1.10,2013-03-19 10:09:00,
2013-03-19 06:24:00,33.6,33.0,28.00,ENE,65,0.0,3.0,97,0.01,,,0.30,weatherlink.com 1.10,2013-03-19 10:24:00,
2013-03-19 06:39:00,33.6,33.0,28.00,SSW,203,2.0,3.0,97,0.01,,,0.30,weatherlink.com 1.10,2013-03-19 10:39:00,
2013-03-19 07:09:00,35.6,35.0,28.02,SE,141,1.0,4.0,97,0.00,,,0.30,weatherlink.com 1.10,2013-03-19 11:09:00,
2013-03-19 07:24:00,36.7,35.0,28.02,ENE,77,0.0,1.0,94,0.01,,,0.31,weatherlink.com 1.10,2013-03-19 11:24:00,
2013-03-19 07:39:00,35.9,35.0,28.03,SSW,199,0.0,1.0,95,0.02,,,0.32,weatherlink.com 1.10,2013-03-19 11:39:00,
2013-03-19 07:54:00,36.4,35.0,28.04,SSW,198,1.0,1.0,94,0.02,,,0.32,weatherlink.com 1.10,2013-03-19 11:54:00,
2013-03-19 08:09:00,39.9,36.0,28.04,ENE,64,0.0,4.0,84,0.04,,,0.34,weatherlink.com 1.10,2013-03-19 12:09:00,
2013-03-19 08:24:00,40.6,33.0,28.05,SSW,207,9.0,15.0,75,0.06,,,0.37,weatherlink.com 1.10,2013-03-19 12:24:00,
2013-03-19 08:39:00,40.5,34.0,28.05,SW,218,0.0,6.0,78,0.08,,,0.40,weatherlink.com 1.10,2013-03-19 12:39:00,
2013-03-19 08:54:00,41.4,32.0,28.05,South,191,6.0,11.0,70,0.10,,,0.43,weatherlink.com 1.10,2013-03-19 12:54:00,
2013-03-19 09:09:00,41.6,31.0,28.05,South,177,7.0,15.0,67,0.12,,,0.46,weatherlink.com 1.10,2013-03-19 13:09:00,
2013-03-19 09:24:00,41.8,30.0,28.06,SSW,198,6.0,16.0,63,0.12,,,0.49,weatherlink.com 1.10,2013-03-19 13:24:00,
2013-03-19 09:39:00,41.9,28.0,28.06,South,190,8.0,16.0,59,0.12,,,0.52,weatherlink.com 1.10,2013-03-19 13:39:00,
2013-03-19 09:54:00,41.8,29.0,28.06,SW,226,4.0,10.0,60,0.11,,,0.54,weatherlink.com 1.10,2013-03-19 13:54:00,
2013-03-19 10:09:00,42.2,29.0,28.06,SSW,204,2.0,12.0,59,0.10,,,0.56,weatherlink.com 1.10,2013-03-19 14:09:00,
2013-03-19 10:24:00,42.7,26.0,28.06,SSW,207,2.0,12.0,53,0.08,,,0.58,weatherlink.com 1.10,2013-03-19 14:24:00,
2013-03-19 10:39:00,43.7,27.0,28.04,South,184,4.0,17.0,53,0.09,,,0.61,weatherlink.com 1.10,2013-03-19 14:39:00,
2013-03-19 10:54:00,44.7,28.0,28.04,SSW,204,1.0,10.0,53,0.09,,,0.63,weatherlink.com 1.10,2013-03-19 14:54:00,
2013-03-19 11:09:00,46.4,27.0,28.03,East,86,2.0,9.0,47,0.09,,,0.65,weatherlink.com 1.10,2013-03-19 15:09:00,
2013-03-19 11:24:00,45.8,26.0,28.03,SSE,160,10.0,16.0,46,0.09,,,0.67,weatherlink.com 1.10,2013-03-19 15:24:00,
2013-03-19 11:39:00,46.4,26.0,28.03,South,174,5.0,12.0,45,0.09,,,0.70,weatherlink.com 1.10,2013-03-19 15:39:00,
2013-03-19 11:54:00,46.6,27.0,28.04,SSE,156,10.0,19.0,47,0.10,,,0.73,weatherlink.com 1.10,2013-03-19 15:54:00,
2013-03-19 12:09:00,47.4,27.0,28.03,South,186,7.0,22.0,45,0.09,,,0.74,weatherlink.com 1.10,2013-03-19 16:09:00,
2013-03-19 12:24:00,48.0,26.0,28.03,ENE,61,2.0,18.0,43,0.06,,,0.74,weatherlink.com 1.10,2013-03-19 16:24:00,
2013-03-19 12:39:00,49.0,27.0,28.03,SSW,193,8.0,21.0,43,0.04,,,0.74,weatherlink.com 1.10,2013-03-19 16:39:00,
2013-03-19 12:55:00,49.3,26.0,28.02,SSW,204,12.0,18.0,40,0.01,,,0.74,weatherlink.com 1.10,2013-03-19 16:55:00,
2013-03-19 13:10:00,49.8,29.0,28.02,SSW,194,8.0,14.0,45,0.00,,,0.74,weatherlink.com 1.10,2013-03-19 17:10:00,
2013-03-19 13:25:00,50.5,27.0,28.01,SSW,199,8.0,18.0,40,0.00,,,0.74,weatherlink.com 1.10,2013-03-19 17:25:00,
2013-03-19 13:40:00,51.8,29.0,28.01,SSW,194,3.0,13.0,42,0.00,,,0.74,weatherlink.com 1.10,2013-03-19 17:40:00,
2013-03-19 13:55:00,51.6,27.0,28.00,SSW,207,2.0,21.0,38,0.00,,,0.00,weatherlink.com 1.10,2013-03-19 17:55:00,
2013-03-19 14:10:00,52.7,26.0,28.00,SSE,161,8.0,14.0,36,0.00,,,0.00,weatherlink.com 1.10,2013-03-19 18:10:00,
2013-03-19 14:25:00,52.2,26.0,28.00,South,183,7.0,25.0,36,0.00,,,0.00,weatherlink.com 1.10,2013-03-19 18:25:00,
2013-03-19 14:40:00,52.4,25.0,28.00,ESE,110,4.0,13.0,34,0.00,,,0.00,weatherlink.com 1.10,2013-03-19 18:40:00,
2013-03-19 14:55:00,52.5,23.0,28.00,SE,127,2.0,17.0,32,0.00,,,0.00,weatherlink.com 1.10,2013-03-19 18:55:00,
2013-03-19 15:10:00,52.3,22.0,28.02,WSW,246,7.0,21.0,30,0.00,,,0.00,weatherlink.com 1.10,2013-03-19 19:10:00,
2013-03-19 15:25:00,52.2,24.0,28.01,WNW,291,11.0,15.0,33,0.00,,,0.00,weatherlink.com 1.10,2013-03-19 19:25:00,
2013-03-19 15:40:00,51.7,20.0,28.01,South,188,14.0,22.0,29,0.00,,,0.00,weatherlink.com 1.10,2013-03-19 19:40:00,
2013-03-19 15:55:00,51.2,17.0,28.01,South,188,7.0,16.0,26,0.00,,,0.00,weatherlink.com 1.10,2013-03-19 19:55:00,
2013-03-19 16:10:00,50.9,17.0,28.01,SW,228,11.0,14.0,26,0.00,,,0.00,weatherlink.com 1.10,2013-03-19 20:10:00,
2013-03-19 16:25:00,49.9,16.0,28.02,SSE,165,3.0,19.0,26,0.00,,,0.00,weatherlink.com 1.10,2013-03-19 20:25:00,
2013-03-19 16:40:00,49.2,17.0,28.03,NE,43,1.0,7.0,28,0.00,,,0.00,weatherlink.com 1.10,2013-03-19 20:40:00,
2013-03-19 16:55:00,48.4,13.0,28.04,ENE,57,7.0,14.0,24,0.00,,,0.00,weatherlink.com 1.10,2013-03-19 20:55:00,
2013-03-19 17:10:00,48.3,10.0,28.04,South,174,7.0,19.0,21,0.00,,,0.00,weatherlink.com 1.10,2013-03-19 21:10:00,
2013-03-19 17:25:00,47.8,9.0,28.05,South,174,4.0,24.0,21,0.00,,,0.00,weatherlink.com 1.10,2013-03-19 21:25:00,
2013-03-19 17:40:00,47.3,10.0,28.06,WNW,302,4.0,16.0,22,0.00,,,0.00,weatherlink.com 1.10,2013-03-19 21:40:00,
2013-03-19 17:55:00,46.9,10.0,28.06,South,169,13.0,23.0,22,0.00,,,0.00,weatherlink.com 1.10,2013-03-19 21:55:00,
2013-03-19 18:10:00,46.2,10.0,28.07,SW,217,7.0,13.0,23,0.00,,,0.00,weatherlink.com 1.10,2013-03-19 22:10:00,
2013-03-19 18:25:00,45.5,11.0,28.08,SE,139,1.0,13.0,25,0.00,,,0.00,weatherlink.com 1.10,2013-03-19 22:25:00,
2013-03-19 18:41:00,44.8,11.0,28.09,SSE,150,8.0,21.0,25,0.00,,,0.00,weatherlink.com 1.10,2013-03-19 22:41:00,
2013-03-19 18:56:00,44.0,11.0,28.09,SW,219,0.0,19.0,26,0.00,,,0.00,weatherlink.com 1.10,2013-03-19 22:56:00,
2013-03-19 19:26:00,42.3,11.0,28.10,SSE,168,0.0,4.0,28,0.00,,,0.00,weatherlink.com 1.10,2013-03-19 23:26:00,
2013-03-19 20:11:00,40.2,9.0,28.12,East,89,5.0,9.0,28,0.00,,,0.00,weatherlink.com 1.10,2013-03-20 00:11:00,
2013-03-19 20:26:00,39.9,10.0,28.13,SSW,203,7.0,14.0,29,0.00,,,0.00,weatherlink.com 1.10,2013-03-20 00:26:00,
2013-03-19 20:41:00,39.9,7.0,28.14,SW,222,2.0,12.0,26,0.00,,,0.00,weatherlink.com 1.10,2013-03-20 00:41:00,
2013-03-19 20:56:00,39.4,7.0,28.15,South,181,2.0,12.0,26,0.00,,,0.00,weatherlink.com 1.10,2013-03-20 00:56:00,
2013-03-19 21:11:00,38.9,7.0,28.16,South,177,0.0,20.0,26,0.00,,,0.00,weatherlink.com 1.10,2013-03-20 01:11:00,
2013-03-19 21:26:00,38.8,7.0,28.16,SW,228,6.0,8.0,27,0.00,,,0.00,weatherlink.com 1.10,2013-03-20 01:26:00,
2013-03-19 22:26:00,37.9,7.0,28.17,South,188,8.0,15.0,28,0.00,,,0.00,weatherlink.com 1.10,2013-03-20 02:26:00,
2013-03-19 22:41:00,37.8,6.0,28.18,West,281,0.0,14.0,27,0.00,,,0.00,weatherlink.com 1.10,2013-03-20 02:41:00,
2013-03-19 22:56:00,37.6,5.0,28.18,ESE,120,0.0,9.0,26,0.00,,,0.00,weatherlink.com 1.10,2013-03-20 02:56:00,
2013-03-19 23:11:00,36.7,7.0,28.18,South,186,1.0,6.0,29,0.00,,,0.00,weatherlink.com 1.10,2013-03-20 03:11:00,
2013-03-19 23:27:00,36.7,7.0,28.19,SSE,160,10.0,16.0,29,0.00,,,0.00,weatherlink.com 1.10,2013-03-20 03:27:00,
2013-03-19 23:57:00,36.2,8.0,28.19,SE,140,0.0,7.0,31,0.00,,,0.00,weatherlink.com 1.10,2013-03-20 03:57:00,